Monroe, MI

6:15 AM EDT on August 17, 2017 (GMT -0400)
Custer

Weather History for KTTF - April, 2012

Change the Weather History Date:

Sunday, April 22, 2012

  Actual Average Record
Temperature  
Mean Temperature 44 °F -  
Max Temperature 53 °F 62 °F 89 °F (1985)
Min Temperature 35 °F 42 °F 27 °F (1978)
Degree Days  
Heating Degree Days 21    
Moisture  
Dew Point 28 °F    
Average Humidity 56    
Maximum Humidity 87    
Minimum Humidity 28    
Precipitation  
Precipitation 0.00 in - - ()
Sea Level Pressure  
Sea Level Pressure 29.95 in    
Wind  
Wind Speed 8 mph (NNE)    
Max Wind Speed 20 mph    
Max Gust Speed 30 mph    
Visibility 10 miles    
Events      
Averages and records for this station are not official NWS values.
T = Trace of Precipitation, MM = Missing Value Source: NWS Daily Summary

Daily Weather History Graph

Daily Weather History Graph

Search for Another Location

Airport or City:

Trip Planner

Search our weather history database for the weather conditions in past years. The results will help you decide how hot, cold, wet, or windy it might be!

Date:

Astronomy

Apr. 22, 2012 Rise Set
Actual Time 6:41 AM EDT 8:23 PM EDT
Civil Twilight 6:12 AM EDT 8:52 PM EDT
Nautical Twilight 5:36 AM EDT 9:28 PM EDT
Astronomical Twilight 4:58 AM EDT 10:07 PM EDT
Moon 7:11 AM EDT (4/22) 10:00 PM EDT (4/22)
Length of Visible Light 14h 40m
Length of Day
13h 41m
New Moon, 2% of the Moon is Illuminated
Apr 22
New Moon
Apr 29
First Quarter
May 5
Full
May 12
Last Quarter
May 20
New

Hourly Weather History & Observations

Time (EDT) Temp. Windchill Dew Point Humidity Pressure Visibility Wind Dir Wind Speed Gust Speed Precip Events Conditions
12:14 AM 39.2 °F 34.2 °F 28.4 °F 65% 29.99 in 10.0 mi NNE 6.9 mph - N/A   Clear
12:54 AM 39.2 °F 35.9 °F 28.4 °F 65% 29.99 in 10.0 mi NNE 4.6 mph - N/A   Clear
1:14 AM 39.2 °F 35.9 °F 30.2 °F 70% 29.98 in 10.0 mi NNE 4.6 mph - N/A   Clear
1:34 AM 39.2 °F 35.9 °F 30.2 °F 70% 29.97 in 10.0 mi North 4.6 mph - N/A   Clear
1:55 AM 37.4 °F 33.8 °F 30.2 °F 75% 29.97 in 10.0 mi North 4.6 mph - N/A   Clear
2:15 AM 37.4 °F 34.9 °F 30.2 °F 75% 29.97 in 10.0 mi North 3.5 mph - N/A   Clear
2:35 AM 37.4 °F - 30.2 °F 75% 29.97 in 10.0 mi Calm Calm - N/A   Clear
2:55 AM 37.4 °F 34.9 °F 30.2 °F 75% 29.98 in 10.0 mi NW 3.5 mph - N/A   Scattered Clouds
3:10 AM 37.4 °F 33.8 °F 30.2 °F 75% 29.97 in 10.0 mi NNW 4.6 mph - N/A   Scattered Clouds
3:30 AM 37.4 °F 34.9 °F 32.0 °F 81% 29.97 in 10.0 mi North 3.5 mph - N/A   Mostly Cloudy
3:50 AM 35.6 °F - 32.0 °F 87% 29.97 in 10.0 mi Calm Calm - N/A   Mostly Cloudy
4:10 AM 35.6 °F 32.8 °F 32.0 °F 87% 29.97 in 10.0 mi North 3.5 mph - N/A   Scattered Clouds
4:31 AM 37.4 °F 32.8 °F 32.0 °F 81% 29.96 in 10.0 mi NNW 5.8 mph - N/A   Clear
4:51 AM 37.4 °F 32.8 °F 32.0 °F 81% 29.96 in 10.0 mi North 5.8 mph - N/A   Clear
5:11 AM 37.4 °F 32.1 °F 32.0 °F 81% 29.96 in 10.0 mi North 6.9 mph - N/A   Clear
5:31 AM 37.4 °F 31.4 °F 32.0 °F 81% 29.95 in 10.0 mi North 8.1 mph - N/A   Clear
5:51 AM 37.4 °F 30.8 °F 32.0 °F 81% 29.94 in 10.0 mi North 9.2 mph - N/A   Clear
6:11 AM 37.4 °F 30.8 °F 33.8 °F 87% 29.94 in 10.0 mi North 9.2 mph - N/A   Clear
6:31 AM 37.4 °F 32.1 °F 32.0 °F 81% 29.95 in 10.0 mi North 6.9 mph - N/A   Clear
6:51 AM 37.4 °F 31.4 °F 32.0 °F 81% 29.95 in 10.0 mi NNE 8.1 mph - N/A   Clear
7:12 AM 37.4 °F 32.1 °F 32.0 °F 81% 29.96 in 10.0 mi North 6.9 mph - N/A   Clear
7:32 AM 37.4 °F 30.8 °F 33.8 °F 87% 29.97 in 10.0 mi North 9.2 mph - N/A   Clear
7:52 AM 37.4 °F 32.1 °F 32.0 °F 81% 29.97 in 10.0 mi NNE 6.9 mph - N/A   Clear
8:12 AM 39.2 °F 35.0 °F 32.0 °F 75% 29.97 in 10.0 mi North 5.8 mph - N/A   Scattered Clouds
8:32 AM 39.2 °F 33.0 °F 30.2 °F 70% 29.97 in 10.0 mi North 9.2 mph - N/A   Overcast
8:52 AM 41.0 °F 35.2 °F 32.0 °F 70% 29.97 in 10.0 mi NNE 9.2 mph - N/A   Overcast
9:12 AM 41.0 °F 36.4 °F 32.0 °F 70% 29.97 in 10.0 mi NNE 6.9 mph - N/A   Overcast
9:32 AM 42.8 °F 38.0 °F 32.0 °F 66% 29.97 in 10.0 mi NNE 8.1 mph - N/A   Overcast
9:53 AM 42.8 °F 38.0 °F 32.0 °F 66% 29.97 in 10.0 mi NNE 8.1 mph - N/A   Overcast
10:13 AM 44.6 °F 38.8 °F 30.2 °F 57% 29.97 in 10.0 mi NNE 11.5 mph 18.4 mph N/A   Overcast
10:33 AM 44.6 °F 39.7 °F 30.2 °F 57% 29.97 in 10.0 mi NE 9.2 mph 17.3 mph N/A   Overcast
10:53 AM 44.6 °F 40.2 °F 30.2 °F 57% 29.97 in 10.0 mi NNE 8.1 mph 19.6 mph N/A   Overcast
11:13 AM 44.6 °F 39.2 °F 28.4 °F 53% 29.97 in 10.0 mi NNE 10.4 mph 18.4 mph N/A   Overcast
11:33 AM 44.6 °F 38.8 °F 28.4 °F 53% 29.97 in 10.0 mi NNE 11.5 mph 16.1 mph N/A   Overcast
11:53 AM 46.4 °F 42.9 °F 30.2 °F 53% 29.96 in 10.0 mi NNE 6.9 mph 16.1 mph N/A   Overcast
12:13 PM 48.2 °F - 28.4 °F 46% 29.95 in 10.0 mi North 11.5 mph 19.6 mph N/A   Overcast
12:34 PM 48.2 °F - 28.4 °F 46% 29.95 in 10.0 mi ENE 15.0 mph 20.7 mph N/A   Mostly Cloudy
12:54 PM 48.2 °F - 28.4 °F 46% 29.95 in 10.0 mi North 12.7 mph 21.9 mph N/A   Overcast
1:14 PM 50.0 °F - 24.8 °F 37% 29.94 in 10.0 mi NNE 12.7 mph 19.6 mph N/A   Scattered Clouds
1:34 PM 50.0 °F - 23.0 °F 35% 29.94 in 10.0 mi NE 13.8 mph 20.7 mph N/A   Scattered Clouds
1:54 PM 51.8 °F - 24.8 °F 35% 29.94 in 10.0 mi NE 15.0 mph 20.7 mph N/A   Mostly Cloudy
2:14 PM 50.0 °F - 28.4 °F 43% 29.94 in 10.0 mi NE 16.1 mph 24.2 mph N/A   Mostly Cloudy
2:34 PM 50.0 °F - 28.4 °F 43% 29.94 in 10.0 mi NE 17.3 mph 23.0 mph N/A   Mostly Cloudy
2:54 PM 51.8 °F - 28.4 °F 41% 29.94 in 10.0 mi NNE 15.0 mph 25.3 mph N/A   Scattered Clouds
3:14 PM 50.0 °F - 28.4 °F 43% 29.93 in 10.0 mi NE 19.6 mph 25.3 mph N/A   Mostly Cloudy
3:35 PM 51.8 °F - 26.6 °F 38% 29.93 in 10.0 mi NNE 17.3 mph 24.2 mph N/A   Mostly Cloudy
3:55 PM 51.8 °F - 26.6 °F 38% 29.93 in 10.0 mi NE 13.8 mph 19.6 mph N/A   Mostly Cloudy
4:15 PM 51.8 °F - 26.6 °F 38% 29.92 in 10.0 mi NNE 12.7 mph 16.1 mph N/A   Mostly Cloudy
4:35 PM 51.8 °F - 24.8 °F 35% 29.91 in 10.0 mi NE 10.4 mph 29.9 mph N/A   Scattered Clouds
4:55 PM 51.8 °F - 23.0 °F 33% 29.91 in 10.0 mi NE 13.8 mph 26.5 mph N/A   Scattered Clouds
5:10 PM 53.6 °F - 24.8 °F 33% 29.91 in 10.0 mi NE 11.5 mph 20.7 mph N/A   Scattered Clouds
5:30 PM 53.6 °F - 21.2 °F 28% 29.91 in 10.0 mi NE 12.7 mph 24.2 mph N/A   Clear
5:50 PM 53.6 °F - 24.8 °F 33% 29.91 in 10.0 mi North 15.0 mph 23.0 mph N/A   Scattered Clouds
6:10 PM 51.8 °F - 21.2 °F 30% 29.92 in 10.0 mi NNE 13.8 mph 19.6 mph N/A   Scattered Clouds
6:31 PM 51.8 °F - 21.2 °F 30% 29.92 in 10.0 mi NNE 10.4 mph 20.7 mph N/A   Mostly Cloudy
6:51 PM 50.0 °F - 21.2 °F 32% 29.92 in 10.0 mi NNE 8.1 mph 19.6 mph N/A   Overcast
7:11 PM 50.0 °F - 23.0 °F 35% 29.92 in 10.0 mi North 19.6 mph 24.2 mph N/A   Overcast
7:31 PM 48.2 °F - 24.8 °F 40% 29.92 in 10.0 mi North 17.3 mph 21.9 mph N/A   Mostly Cloudy
7:51 PM 48.2 °F - 23.0 °F 37% 29.93 in 10.0 mi North 17.3 mph 24.2 mph N/A   Mostly Cloudy
8:11 PM 46.4 °F 40.7 °F 24.8 °F 43% 29.93 in 10.0 mi North 12.7 mph 17.3 mph N/A   Overcast
8:31 PM 46.4 °F 41.1 °F 24.8 °F 43% 29.94 in 10.0 mi NNE 11.5 mph 20.7 mph N/A   Mostly Cloudy
8:51 PM 46.4 °F 40.7 °F 24.8 °F 43% 29.94 in 10.0 mi NNE 12.7 mph 19.6 mph N/A   Mostly Cloudy
9:12 PM 44.6 °F 39.2 °F 24.8 °F 46% 29.94 in 10.0 mi North 10.4 mph 18.4 mph N/A   Mostly Cloudy
9:32 PM 44.6 °F 37.8 °F 23.0 °F 43% 29.94 in 10.0 mi North 15.0 mph 23.0 mph N/A   Scattered Clouds
9:52 PM 44.6 °F 37.8 °F 23.0 °F 43% 29.94 in 10.0 mi North 15.0 mph 20.7 mph N/A   Scattered Clouds
10:12 PM 44.6 °F 37.2 °F 21.2 °F 39% 29.93 in 10.0 mi North 17.3 mph - N/A   Scattered Clouds
10:32 PM 44.6 °F 38.8 °F 21.2 °F 39% 29.93 in 10.0 mi North 11.5 mph - N/A   Mostly Cloudy
10:52 PM 42.8 °F 37.5 °F 21.2 °F 42% 29.92 in 10.0 mi NNW 9.2 mph 16.1 mph N/A   Scattered Clouds
11:12 PM 42.8 °F 37.0 °F 21.2 °F 42% 29.92 in 10.0 mi North 10.4 mph - N/A   Clear
11:32 PM 42.8 °F 38.0 °F 21.2 °F 42% 29.91 in 10.0 mi NNW 8.1 mph - N/A   Clear
11:53 PM 42.8 °F 37.5 °F 21.2 °F 42% 29.91 in 10.0 mi North 9.2 mph - N/A   Clear